Home   Weather   Verona   Past weeks

Flag for Italy Past Weather in Verona, Italy — Yesterday and Last 2 Weeks

Now
46 °F

Clear.


Feels Like: 46 °F
Forecast: 31 / 47 °F
Wind: 1 mph from North

Location: Verona / Villafranca

Current Time: Dec 6, 2016 at 1:11:10 pm

Latest Report: Dec 6, 2016 at 12:20 pm


Visibility: 4 mi

Pressure: 30.39 "Hg

Humidity: 71%

Dew Point: 37 °F

Location of VeronaLocation

Past Weather in Verona — Graph

°F

Verona Temperature Yesterday

Maximum temperature yesterday: 52 °F (at 2:20 pm)
Minimum temperature yesterday: 37 °F (at 7:50 pm)
Average temperature yesterday: 44 °F

High & Low Weather Summary for the Past Weeks

 TemperatureHumidityPressure
High64 °F (Nov 22, 12:50 pm)100% (Nov 21, 8:50 pm)30.54 "Hg (Nov 21, 8:50 pm)
Low28 °F (Dec 2, 5:20 am)25% (Nov 29, 12:50 pm)29.86 "Hg (Nov 27, 5:20 pm)
Average47 °F82%30.15 "Hg
* Reported Nov 21 11:20 am — Dec 6 11:50 am, Verona, Weather by CustomWeather, © 2016

Note: Actual official high and low records may vary slightly from our data, if they occured in-between our weather recording intervals... More about our weather records

Advertising

Verona Weather History for the Previous 24 Hours

Scroll right to see more
 ConditionsComfort  
Time TempWeatherWind HumidityBarometerVisibility
11:50 am
Tue, Dec 6
45 °FClear.3 mph81%30.39 "Hg4 mi
11:20 am43 °FClear.3 mph81%30.42 "Hg4 mi
10:50 am41 °FPassing clouds.2 mph87%30.42 "Hg4 mi
10:20 am39 °FPassing clouds.2 mph87%30.42 "Hg4 mi
9:50 am39 °FScattered clouds.1 mph87%30.39 "Hg4 mi
9:20 am37 °FFog.1 mph93%30.39 "Hg3 mi
8:50 am34 °FFog.2 mph93%30.39 "Hg2 mi
8:20 am34 °FFog.1 mph93%30.39 "Hg2 mi
7:50 am32 °FIce fog.3 mph100%30.36 "Hg2 mi
7:20 am34 °FFog.1 mph93%30.36 "Hg2 mi
6:50 am34 °FPassing clouds.1 mph93%30.36 "Hg4 mi
6:20 am32 °FPassing clouds.5 mph93%30.36 "Hg4 mi
5:50 am34 °FPassing clouds.3 mph93%30.36 "Hg4 mi
5:20 am34 °FPassing clouds.3 mph87%30.36 "Hg4 mi
4:50 am34 °FPassing clouds.3 mph93%30.36 "Hg4 mi
4:20 am36 °FFog.2 mph87%30.36 "Hg3 mi
3:50 am37 °FFog.3 mph87%30.36 "Hg3 mi
3:20 am36 °FFog.2 mph93%30.36 "Hg3 mi
2:50 am37 °FFog.2 mph87%30.36 "Hg2 mi
2:20 am36 °FFog.1 mph93%30.36 "Hg3 mi
1:50 am36 °FFog.5 mph93%30.36 "Hg3 mi
1:20 am39 °FFog.3 mph87%30.36 "Hg3 mi
12:50 am39 °FFog.3 mph93%30.36 "Hg3 mi
12:20 am41 °FPassing clouds.1 mph87%30.36 "Hg4 mi
11:50 pm
Mon, Dec 5
41 °FPassing clouds.1 mph87%30.36 "Hg4 mi
11:20 pm39 °FPassing clouds.1 mph93%30.36 "Hg4 mi
10:50 pm41 °FPassing clouds.2 mph87%30.36 "Hg5 mi
10:20 pm41 °FPassing clouds.1 mph87%30.36 "Hg5 mi
9:50 pm41 °FPassing clouds.2 mph87%30.36 "Hg4 mi
9:20 pm41 °FPassing clouds.2 mph87%30.36 "Hg4 mi
8:50 pm39 °FPassing clouds.2 mph87%30.36 "Hg5 mi
8:20 pm39 °FPassing clouds.3 mph87%30.36 "Hg5 mi
7:50 pm37 °FPassing clouds.1 mph93%30.36 "Hg5 mi
7:20 pm39 °FClear.1 mph87%30.36 "Hg5 mi
6:50 pm41 °FClear.3 mph87%30.36 "Hg4 mi
6:20 pm41 °FClear.1 mph93%30.36 "Hg4 mi
5:50 pm43 °FClear.5 mph81%30.36 "Hg4 mi
5:20 pm43 °FClear.7 mph87%30.36 "Hg4 mi
4:50 pm46 °FClear.5 mph76%30.36 "Hg4 mi
4:20 pm46 °FClear.6 mph82%30.36 "Hg4 mi
3:50 pm48 °FClear.7 mph76%30.36 "Hg4 mi
3:20 pm50 °FClear.7 mph71%30.36 "Hg5 mi
2:50 pm50 °FPassing clouds.7 mph71%30.36 "Hg5 mi
2:20 pm52 °FScattered clouds.6 mph67%30.36 "Hg5 mi
1:50 pm50 °FPartly sunny.6 mph67%30.36 "HgN/A
1:20 pm50 °FPassing clouds.8 mph54%30.36 "HgN/A
Weather by CustomWeather, © 2016

See weather overviewHow to use our weather pages